Погода в Мархамате

Узбекистан     40°30′13″N   72°20′00″E
темп.,
°C
ветер,
м/с
пор.,
м/с
влажн.,
%
обл.,
%
осадки,
мм/ч
давл.,
гПа
погр.,
м
27 февраля, сб
сб2723:00−3всв11400 0.0 103223
02:00−3ююз004412 0.0 103121
05:00−4юз114552 0.0 103121
08:00−3с0042100 0.0 1030108
11:000сз2133100 0.0 1028771
14:00+2сз1129100 0.0 10281053
17:00+2всв2230100 0.1 1032741
20:00+1всв363796 0.1 1037220
28 февраля, вс
вс2823:00−1всв335450 0.1 103780
02:00−2з01591 0.0 103621
05:00−3ююз11600 0.0 103521
08:00−1ю11490 0.0 103371
11:00+3ссз11360 0.0 1027608
14:00+6ссз11270 0.0 1024910
17:00+7с11250 0.0 1024810
20:00+4св22360 0.0 102823
1 марта, пн
пн123:00+2вюв11440 0.0 102822
02:00+1юз01472 0.0 102722
05:000юз11486 0.0 102722
08:00+2св114274 0.0 102724
11:00+7сз103067 0.0 1024415
14:00+10ссз112418 0.0 1022731
17:00+11ссз21239 0.0 1022559
20:00+7св11310 0.0 102622
2 марта, вт
вт223:00+6в11320 0.0 102822
02:00+5вюв11384 0.0 102822
05:00+4вюв004051 0.0 102822
08:00+5ссз1139100 0.0 102722
11:00+10зсз112796 0.0 1024355
14:00+12сз212292 0.0 1021687
17:00+12сз212396 0.0 1021456
20:00+9в1129100 0.0 102322
3 марта, ср
ср323:00+9св1133100 0.0 102422
02:00+7юз1235100 0.0 102322
05:00+7юз2236100 0.0 102222
08:00+8ююз1235100 0.0 102227
11:00+11зсз223299 0.0 1019667
14:00+13зсз222897 0.0 10171110
17:00+13сз332999 0.0 10171101
20:00+10ююв013999 0.0 102022